Location: Buchloe
(48.0161°N, 10.7316°E)
Time: 18:29:52
(UTC+01:00)

ISS - Pass Details

Date: 01 November 2021
Orbit: 417 x 423 km, 51.6° (Epoch: 29 November)

Event Time Altitude Azimuth Distance (km) Brightness Sun altitude
Exits shadow 06:08:37 13° 296° (WNW) 1,337 -1.8 -9.4°
Maximum altitude 06:11:30 51° 11° (NNE) 537 -3.2 -8.9°
Drops below altitude 10° 06:14:47 10° 89° (E) 1,498 0.6 -8.4°
Sets 06:16:55 0° 95° (E) 2,359 2.3 -8.1°
